Zurück zum Katalog

STARLINK-32425

AktivKommunikationVLEO
NORAD 61216·PAYLOAD·🇺🇸 United States

Gestartet Sep 20, 2024 von Vandenberg Space Force Base

Loading…

Nächste Überflüge (nächste 24 Stunden)

TLE

AktuellSource: CelesTrak SupGP

Epoche: Sep 14, 2026, 22:24 UTC

1 61216C 24171S   26257.93381944 -.00047111  00000+0 -15147-2 0  2576
2 61216  53.1580 162.5459 0001503  83.6029 327.7101 15.31730337    14

Verfolge STARLINK-32425 in Echtzeit mit AllMySat

Download on the App Store